This demonstration page uses our WeatherBlox Daily Observations layout. Learn more.

Left ArrowRight Arrow

39.95238, -75.16362

Hourly Observations for September 8, 2019

Temp ( °F °C ) Dew Point ( °F °C ) Humidity (%) Winds ( mph kmh ) Pressure ( in mb ) Visibility ( mi km ) Precip ( " mm )
12:54 am 00:54 Partly Cloudy 68 20 55 12.8 63 63 WNW 8 13 29.95 1014 10 16 0.00 0.00
1:54 am 01:54 Partly Cloudy 68 20 55 12.8 63 63 WNW 7 11 29.96 1015 10 16 0.00 0.00
2:54 am 02:54 Mostly Cloudy 68 20 55 12.8 63 63 WNW 8 13 29.96 1015 10 16 0.00 0.00
3:54 am 03:54 Partly Cloudy 66 18.9 55 12.8 68 68 Calm 29.97 1015 10 16 0.00 0.00
4:54 am 04:54 Partly Cloudy 63 17.2 55 12.8 76 76 WSW 3 6 29.98 1015 10 16 0.00 0.00
5:54 am 05:54 Partly Cloudy 63 17.2 55 12.8 76 76 Calm 30.00 1016 10 16 0.00 0.00
6:54 am 06:54 Partly Cloudy 62 16.7 55 12.8 78 78 Calm 30.02 1017 10 16 0.00 0.00
7:54 am 07:54 Mostly Cloudy 65 18.3 55 12.8 70 70 Calm 30.04 1017 10 16 0.00 0.00
8:54 am 08:54 Mostly Cloudy 69 20.6 55 12.8 61 61 NNW 9 15 30.07 1018 10 16 0.00 0.00
9:54 am 09:54 Mostly Cloudy 70 21.1 54 12.2 57 57 NNW 6 9 30.07 1018 10 16 0.00 0.00
10:54 am 10:54 Partly Cloudy 75 23.9 53 11.7 46 46 Calm 30.08 1019 10 16 0.00 0.00
11:54 am 11:54 Mostly Cloudy 75 23.9 53 11.7 46 46 SW 3 6 30.07 1018 10 16 0.00 0.00
12:54 pm 12:54 Mostly Cloudy 78 25.6 50 10 37 37 WSW 12 19 30.06 1018 10 16 0.00 0.00
1:54 pm 13:54 Partly Cloudy 79 26.1 51 10.6 38 38 VRB 5 7 30.05 1018 10 16 0.00 0.00
2:54 pm 14:54 Mostly Cloudy 81 27.2 51 10.6 35 35 S 7 11 30.04 1017 10 16 0.00 0.00
3:54 pm 15:54 Mostly Cloudy 82 27.8 49 9.4 32 32 NW 9 15 30.04 1017 10 16 0.00 0.00
4:54 pm 16:54 Mostly Cloudy 82 27.8 47 8.3 29 29 WNW 12 19 30.04 1017 10 16 0.00 0.00
5:54 pm 17:54 Partly Cloudy 81 27.2 49 9.4 33 33 WNW 9 15 30.05 1018 10 16 0.00 0.00
6:54 pm 18:54 Partly Cloudy 80 26.7 49 9.4 34 34 W 6 9 30.06 1018 10 16 0.00 0.00
7:54 pm 19:54 Mostly Cloudy 79 26.1 50 10 36 36 WNW 6 9 30.08 1019 10 16 0.00 0.00
8:54 pm 20:54 Mostly Cloudy 75 23.9 57 13.9 54 54 S 3 6 30.10 1019 10 16 0.00 0.00
9:54 pm 21:54 Mostly Cloudy 73 22.8 57 13.9 57 57 SSW 7 11 30.11 1020 10 16 0.00 0.00
10:54 pm 22:54 Cloudy 72 22.2 60 15.6 66 66 SW 3 6 30.12 1020 10 16 0.00 0.00
11:54 pm 23:54 Cloudy 72 22.2 61 16.1 68 68 SSW 3 6 30.11 1020 10 16 0.00 0.00

Powered by AerisWeather